Laurinburg-Maxton, NC

2:24 PM EDT on June 25, 2017 (GMT -0400)
Laurinburg-Maxton

Weather History for KMEB - July, 2013

Change the Weather History Date:

Monday, July 8, 2013

  Actual Average (KHFF) Record (KHFF)
Temperature  
Mean Temperature 80 °F -  
Max Temperature 89 °F 86 °F 102 °F (2012)
Min Temperature 73 °F 71 °F 64 °F (2002)
Cooling Degree Days 15    
Growing Degree Days 30 (Base 50)    
Moisture  
Dew Point 73 °F    
Average Humidity 86    
Maximum Humidity 100    
Minimum Humidity 61    
Precipitation  
Precipitation 0.20 in - - ()
Sea Level Pressure  
Sea Level Pressure 30.16 in    
Wind  
Wind Speed 6 mph (SW)    
Max Wind Speed 9 mph    
Max Gust Speed -    
Visibility 9 miles    
Events Rain , Thunderstorm    
Averages and records for this station are not official NWS values.
T = Trace of Precipitation, MM = Missing Value Source: NWS Daily Summary

Daily Weather History Graph

Daily Weather History Graph

Search for Another Location

Airport or City:

Trip Planner

Search our weather history database for the weather conditions in past years. The results will help you decide how hot, cold, wet, or windy it might be!

Date:

Astronomy

Jul. 08, 2013 Rise Set
Actual Time 6:11 AM EDT 8:33 PM EDT
Civil Twilight 5:42 AM EDT 9:02 PM EDT
Nautical Twilight 5:06 AM EDT 9:38 PM EDT
Astronomical Twilight 4:26 AM EDT 10:17 PM EDT
Moon 6:35 AM EDT (7/8) 8:39 PM EDT (7/8)
Length of Visible Light 15h 20m
Length of Day
14h 22m
New Moon, 0% of the Moon is Illuminated
Jul 8
New Moon
Jul 15
First Quarter
Jul 22
Full
Jul 29
Last Quarter
Aug 6
New

Hourly Weather History & Observations

Time (EDT) Temp. Heat Index Dew Point Humidity Pressure Visibility Wind Dir Wind Speed Gust Speed Precip Events Conditions
12:52 AM 75.0 °F - 72.0 °F 90% 30.16 in 10.0 mi SSW 6.9 mph - N/A   Clear
1:52 AM 73.9 °F - 72.0 °F 93% 30.16 in 10.0 mi SW 5.8 mph - N/A   Clear
2:52 AM 73.9 °F - 72.0 °F 93% 30.16 in 10.0 mi SW 8.1 mph - N/A   Clear
3:52 AM 73.0 °F - 71.1 °F 93% 30.16 in 10.0 mi SW 5.8 mph - N/A   Partly Cloudy
4:52 AM 73.0 °F - 72.0 °F 96% 30.16 in 10.0 mi SW 4.6 mph - N/A   Mostly Cloudy
5:52 AM 73.0 °F - 72.0 °F 96% 30.16 in 10.0 mi SSW 4.6 mph - N/A   Mostly Cloudy
6:52 AM 73.0 °F - 72.0 °F 96% 30.17 in 10.0 mi SSW 5.8 mph - N/A   Clear
7:52 AM 75.9 °F - 72.0 °F 87% 30.18 in 10.0 mi SW 5.8 mph - N/A   Clear
8:21 AM 75.2 °F - 73.4 °F 94% 30.20 in 10.0 mi SW 8.1 mph - N/A   Mostly Cloudy
8:52 AM 78.1 °F - 73.0 °F 84% 30.19 in 10.0 mi SW 9.2 mph - N/A   Scattered Clouds
9:10 AM 78.8 °F - 73.4 °F 83% 30.19 in 10.0 mi WSW 8.1 mph - N/A   Mostly Cloudy
9:35 AM 80.6 °F 85.4 °F 73.4 °F 79% 30.20 in 10.0 mi SSW 9.2 mph - N/A   Mostly Cloudy
9:52 AM 80.1 °F 84.2 °F 73.0 °F 79% 30.19 in 10.0 mi WSW 8.1 mph - N/A   Mostly Cloudy
10:52 AM 82.0 °F 87.9 °F 73.9 °F 76% 30.19 in 10.0 mi WSW 6.9 mph - N/A   Overcast
11:26 AM 82.4 °F 88.2 °F 73.4 °F 74% 30.21 in 10.0 mi Variable 5.8 mph - N/A   Scattered Clouds
11:36 AM 82.4 °F 88.2 °F 73.4 °F 74% 30.20 in 10.0 mi WSW 4.6 mph - N/A   Mostly Cloudy
11:52 AM 82.9 °F 88.8 °F 73.0 °F 72% 30.19 in 10.0 mi West 4.6 mph - N/A   Scattered Clouds
12:52 PM 86.0 °F 92.2 °F 72.0 °F 63% 30.18 in 10.0 mi WSW 4.6 mph - N/A   Partly Cloudy
1:52 PM 87.1 °F 94.5 °F 73.0 °F 63% 30.17 in 10.0 mi WSW 8.1 mph - N/A   Mostly Cloudy
2:52 PM 87.1 °F 93.6 °F 72.0 °F 61% 30.14 in 10.0 mi SW 9.2 mph - N/A   Mostly Cloudy
3:26 PM 80.6 °F 86.2 °F 75.2 °F 84% 30.14 in 2.0 mi WSW 4.6 mph - 0.04 in Rain Light Rain
3:43 PM 82.4 °F 88.2 °F 73.4 °F 74% 30.14 in 10.0 mi Calm Calm - 0.07 in Rain Light Rain
3:52 PM 82.9 °F 89.4 °F 73.9 °F 74% 30.12 in 10.0 mi Calm Calm - 0.07 in   Overcast
4:29 PM 84.2 °F 92.3 °F 75.2 °F 74% 30.12 in 10.0 mi SSW 3.5 mph - N/A Thunderstorm Partly Cloudy
4:52 PM 82.9 °F 88.8 °F 73.0 °F 72% 30.12 in 10.0 mi SW 3.5 mph - N/A Thunderstorm Mostly Cloudy
5:44 PM 75.2 °F - 73.4 °F 94% 30.13 in 1.8 mi NNE 3.5 mph - 0.09 in Rain , Thunderstorm Heavy Thunderstorms and Rain
5:52 PM 75.0 °F - 73.9 °F 96% 30.14 in 2.5 mi North 6.9 mph - 0.10 in Rain , Thunderstorm Thunderstorms and Rain
5:57 PM 75.2 °F - 73.4 °F 94% 30.15 in 5.0 mi NNE 5.8 mph - 0.01 in Rain , Thunderstorm Light Thunderstorms and Rain
6:04 PM 75.2 °F - 73.4 °F 94% 30.14 in 4.0 mi NE 9.2 mph - 0.03 in Rain , Thunderstorm Thunderstorms and Rain
6:14 PM 75.2 °F - 73.4 °F 94% 30.15 in 10.0 mi East 8.1 mph - 0.03 in Thunderstorm Overcast
6:52 PM 75.0 °F - 72.0 °F 90% 30.13 in 10.0 mi SE 4.6 mph - 0.03 in Thunderstorm Mostly Cloudy
7:02 PM 75.2 °F - 71.6 °F 89% 30.13 in 10.0 mi ESE 4.6 mph - N/A   Mostly Cloudy
7:52 PM 77.0 °F - 73.9 °F 90% 30.14 in 10.0 mi Calm Calm - N/A   Overcast
8:52 PM 75.9 °F - 75.0 °F 97% 30.16 in 10.0 mi ESE 3.5 mph - N/A   Mostly Cloudy
9:45 PM 75.2 °F - 75.2 °F 100% 30.16 in 10.0 mi South 6.9 mph - N/A   Mostly Cloudy
9:52 PM 75.9 °F - 73.9 °F 94% 30.16 in 10.0 mi SSW 6.9 mph - N/A   Mostly Cloudy
10:02 PM 75.2 °F - 73.4 °F 94% 30.17 in 10.0 mi SW 5.8 mph - N/A   Scattered Clouds
10:52 PM 73.9 °F - 73.0 °F 97% 30.17 in 10.0 mi Calm Calm - N/A   Clear
11:52 PM 73.0 °F - 72.0 °F 96% 30.18 in 10.0 mi Calm Calm - N/A   Partly Cloudy